Вернуться в каталог

YUNYAO-1 31

АктивенПогодаSSO
NORAD 61894·PAYLOAD·🇨🇳 China
Это название спутника еще не подтверждено официальными источниками.

Запущен Nov 11, 2024 с Jiuquan Satellite Launch Center

Loading…

Ближайшие Пролёты (ближайшие 24 часа)

TLE

СвежийSource: Space-Track

Эпоха: Sep 14, 2026, 15:07 UTC

1 61894U 24205A   26257.63046572  .00004816  00000-0  27649-3 0  9996
2 61894  97.4050 325.1151 0015495 203.6074 156.4448 15.12889688101728

Отслеживайте YUNYAO-1 31 в реальном времени с AllMySat

Download on the App Store